Miles City, MT

10:14 PM MDT on April 29, 2017 (GMT -0600)
Wiley

Weather History for KMLS - October, 2014

Change the Weather History Date:

Friday, October 3, 2014

  Actual Average Record
Temperature  
Mean Temperature 40 °F 52 °F  
Max Temperature 54 °F 65 °F 90 °F (1992)
Min Temperature 26 °F 39 °F 23 °F (1999)
Degree Days  
Heating Degree Days 25 13  
Month to date heating degree days 59 38  
Since 1 July heating degree days 285 274  
Cooling Degree Days 0 0  
Month to date cooling degree days 0 0  
Year to date cooling degree days 648 728  
Moisture  
Dew Point 22 °F    
Average Humidity 56    
Maximum Humidity 85    
Minimum Humidity 26    
Precipitation  
Precipitation 0.00 in 0.04 in 0.77 in (1940)
Month to date precipitation 0.03 0.12  
Year to date precipitation 12.31 10.96  
Sea Level Pressure  
Sea Level Pressure 30.34 in    
Wind  
Wind Speed 10 mph (WNW)    
Max Wind Speed 22 mph    
Max Gust Speed 29 mph    
Visibility 10 miles    
Events      
T = Trace of Precipitation, MM = Missing Value Source: NWS Daily Summary

Daily Weather History Graph

Daily Weather History Graph

Search for Another Location

Airport or City:

Trip Planner

Search our weather history database for the weather conditions in past years. The results will help you decide how hot, cold, wet, or windy it might be!

Date:

Astronomy

Oct. 03, 2014 Rise Set
Actual Time 7:04 AM MDT 6:39 PM MDT
Civil Twilight 6:34 AM MDT 7:09 PM MDT
Nautical Twilight 5:59 AM MDT 7:44 PM MDT
Astronomical Twilight 5:24 AM MDT 8:19 PM MDT
Moon 3:50 PM MDT (10/3) 1:11 AM MDT (10/3)
Length of Visible Light 12h 34m
Length of Day
11h 34m
Waxing Gibbous, 71% of the Moon is Illuminated
Oct 3
Waxing Gibbous
Oct 8
Full
Oct 15
Last Quarter
Oct 23
New
Oct 30
First Quarter

Hourly Weather History & Observations

Time (MDT) Temp. Windchill Dew Point Humidity Pressure Visibility Wind Dir Wind Speed Gust Speed Precip Events Conditions
12:53 AM 36.0 °F 28.5 °F 23.0 °F 59% 30.42 in 10.0 mi WNW 10.4 mph - N/A   Overcast
1:53 AM 30.9 °F 24.3 °F 23.0 °F 72% 30.43 in 10.0 mi West 6.9 mph - N/A   Scattered Clouds
2:53 AM 33.1 °F 23.9 °F 25.0 °F 72% 30.42 in 10.0 mi West 12.7 mph - N/A   Clear
3:53 AM 28.9 °F 23.9 °F 24.1 °F 82% 30.43 in 10.0 mi North 4.6 mph - N/A   Clear
4:53 AM 30.0 °F 21.1 °F 23.0 °F 75% 30.42 in 10.0 mi West 10.4 mph - N/A   Clear
5:53 AM 28.0 °F 22.8 °F 21.9 °F 78% 30.43 in 10.0 mi NNW 4.6 mph - N/A   Clear
6:53 AM 26.1 °F 18.4 °F 21.0 °F 81% 30.44 in 10.0 mi NW 6.9 mph - N/A   Clear
7:53 AM 28.0 °F 20.0 °F 23.0 °F 81% 30.44 in 10.0 mi WNW 8.1 mph - N/A   Clear
8:53 AM 36.0 °F 27.5 °F 25.0 °F 64% 30.44 in 10.0 mi WNW 12.7 mph - N/A   Clear
9:53 AM 39.9 °F 33.4 °F 26.1 °F 58% 30.43 in 10.0 mi NW 10.4 mph - N/A   Mostly Cloudy
10:53 AM 45.0 °F 37.4 °F 24.1 °F 44% 30.39 in 10.0 mi NNW 18.4 mph - N/A   Clear
11:53 AM 48.0 °F - 23.0 °F 37% 30.37 in 10.0 mi NW 15.0 mph 21.9 mph N/A   Clear
12:53 PM 50.0 °F - 21.9 °F 33% 30.35 in 10.0 mi WNW 13.8 mph 27.6 mph N/A   Clear
1:53 PM 52.0 °F - 21.0 °F 30% 30.33 in 10.0 mi WNW 15.0 mph - N/A   Clear
2:53 PM 54.0 °F - 19.9 °F 26% 30.30 in 10.0 mi NW 20.7 mph 26.5 mph N/A   Clear
3:53 PM 54.0 °F - 19.9 °F 26% 30.28 in 10.0 mi WNW 16.1 mph 23.0 mph N/A   Clear
4:53 PM 54.0 °F - 19.0 °F 25% 30.27 in 10.0 mi NNW 18.4 mph 23.0 mph N/A   Clear
5:53 PM 52.0 °F - 19.9 °F 28% 30.27 in 10.0 mi NNW 12.7 mph - N/A   Clear
6:53 PM 45.0 °F 41.8 °F 21.0 °F 39% 30.27 in 10.0 mi NNW 5.8 mph - N/A   Clear
7:53 PM 42.1 °F 37.1 °F 21.9 °F 45% 30.26 in 10.0 mi North 8.1 mph - N/A   Clear
8:53 PM 41.0 °F 39.0 °F 21.9 °F 47% 30.23 in 10.0 mi SSW 3.5 mph - N/A   Clear
9:53 PM 36.0 °F 31.1 °F 21.9 °F 57% 30.22 in 10.0 mi WSW 5.8 mph - N/A   Clear
10:53 PM 42.1 °F 40.2 °F 23.0 °F 47% 30.18 in 10.0 mi South 3.5 mph - N/A   Clear
11:53 PM 37.0 °F 33.3 °F 25.0 °F 62% 30.17 in 10.0 mi SE 4.6 mph - N/A   Clear